Location: *
(51.5000°N, 0.1100°W)
Time: 00:25:02
(UTC+00:00)

MSX - Pass Details

Date: 14 August 2024
Orbit: 895 x 904 km, 99.0° (Epoch: 09 September)

Event Time Altitude Azimuth Distance (km) Brightness Sun altitude
Rises 02:11:48 0° 15° (NNE) 3,545 8.3 -18.7°
Reaches altitude 10° 02:14:13 10° 15° (NNE) 2,599 7.3 -18.5°
Maximum altitude 02:20:02 84° 288° (WNW) 917 3.8 -18.0°
Enters shadow 02:23:11 29° 202° (SSW) 1,613 4.6 -17.7°
